Location: Gro� Glienicke
(52.4675°N, 13.1079°E)
Time: 02:50:23
(UTC+00:00)

Cosmos 1452 Rocket - Pass Details

Date: 06 July 2020
Orbit: 768 x 774 km, 74.1° (Epoch: 04 August)

Event Time Altitude Azimuth Distance (km) Brightness Sun altitude
Rises 22:48:22 0° 333° (NNW) 3,259 8.1 -14.8°
Reaches altitude 10° 22:50:46 10° 331° (NNW) 2,327 7.1 -14.8°
Maximum altitude 22:56:01 72° 249° (WSW) 815 3.5 -14.9°
Enters shadow 22:59:19 23° 169° (S) 1,589 4.5 -14.9°
